Presure
279 301 318 321 365 336 349 392 508 536 454 466 428 390 375 334 313 267 266 275 295 276 261 267 250 271 264 254 250 252 249 249 248 242 244 240 241 246 254 253 302 304 306 330
296 299 315 313 353 336 361 493 490 439 426 451 412 396 332 313 310 269 264 276 303 281 274 273 261 266 261 252 250 254 243 242 241 242 241 240 242 248 252 271 299 285 318 267
298 305 316 345 334 336 364 475 427 416 408 416 379 350 322 307 310 286 267 272 298 293 268 281 270 258 258 247 245 244 240 235 235 236 243 240 240 253 264 285 284 290 268 259
296 300 310 351 328 337 365 451 420 415 400 370 381 331 313 309 303 286 272 278 292 287 279 266 277 266 255 249 242 240 240 242 239 243 246 244 249 252 277 274 283 286 269 245
294 300 304 336 330 332 346 431 408 392 360 370 356 321 302 307 293 279 267 276 305 294 281 260 268 263 254 254 255 250 246 244 245 246 251 253 258 258 291 268 276 278 243 229
290 304 343 323 323 324 333 341 372 368 364 368 331 315 299 306 289 270 268 269 286 289 272 260 268 276 261 260 256 255 253 248 252 251 257 277 284 265 283 258 270 244 232 223
286 298 340 311 322 320 334 340 351 370 365 336 319 309 300 303 282 270 263 263 286 279 279 269 264 265 275 274 262 255 249 258 275 276 277 275 251 270 272 256 262 238 230 218
297 297 326 299 317 318 337 343 352 371 359 292 311 303 302 295 278 268 258 263 279 280 273 255 250 273 276 280 280 276 280 269 272 273 279 277 275 261 264 247 258 238 236 231
292 304 314 301 316 319 335 339 354 363 362 324 305 297 298 291 278 273 262 266 274 279 281 276 253 256 256 259 272 272 266 262 281 274 279 290 269 250 257 248 235 239 229 223
285 324 307 304 314 319 335 335 349 369 363 329 309 294 299 293 273 266 263 256 264 272 269 270 274 274 278 259 259 284 274 255 255 263 275 286 262 246 252 243 245 252 230 223
279 340 304 299 311 317 336 340 343 361 370 336 310 294 290 295 284 177 263 260 263 270 272 273 267 260 265 250 270 154 263 252 259 261 274 260 257 270 249 261 246 233 234 228
284 336 301 292 306 313 331 338 351 358 367 341 320 302 292 291 290 280 273 265 263 263 263 263 279 278 266 262 259 254 254 255 263 255 259 261 261 280 246 243 250 249 243 228
293 326 295 289 301 336 341 348 348 339 343 330 331 325 302 295 294 296 284 272 268 261 263 265 268 270 274 273 271 269 268 273 278 258 259 259 267 274 260 245 245 253 241 231
308 320 291 279 294 296 310 313 310 307 301 305 304 302 324 344 347 336 307 302 296 288 281 206 262 260 257 257 263 257 258 262 266 277 280 238 254 261 267 259 240 244 239 239
336 320 288 281 285 281 280 288 294 287 285 282 281 304 301 305 354 366 364 365 356 314 306 306 301 297 295 299 298 290 319 318 324 314 319 315 322 252 266 271 250 241 244 237
379 322 287 281 277 278 278 282 273 269 272 269 275 278 304 316 331 350 350 345 359 357 352 351 341 328 344 345 343 311 303 315 303 323 310 318 302 282 246 272 278 256 247 244
352 323 288 273 274 278 283 278 269 265 267 268 266 266 274 305 322 338 340 363 341 332 332 334 346 338 340 321 323 313 302 309 301 299 302 298 304 301 304 265 271 280 270 254
340 318 294 278 273 269 276 283 272 264 262 269 265 268 267 297 332 336 339 356 357 334 323 327 347 330 354 317 316 313 304 295 304 309 294 300 298 310 313 288 272 257 268 284
326 315 305 283 267 266 251 267 281 268 259 255 262 264 288 308 347 343 342 363 348 340 334 331 334 345 325 311 304 303 306 296 305 294 301 297 302 308 310 310 316 270 276 261
314 311 308 292 280 258 255 266 260 277 261 255 256 258 288 318 373 374 381 353 354 322 325 332 336 312 321 312 314 304 304 298 297 288 288 291 299 288 278 283 282 319 321 297
286 303 305 292 297 287 272 261 246 273 260 256 254 272 308 360 345 341 352 333 334 332 318 308 307 293 317 295 293 282 314 299 287 283 283 279 285 297 307 305 292 291 290 286
393 370 294 284 279 288 291 272 265 263 258 256 256 292 346 328 322 320 316 312 308 295 300 291 295 287 298 290 294 299 292 286 287 289 287 285 285 288 290 296 301 301 300 297
361 351 348 361 285 298 292 281 278 269 255 260 274 335 323 305 319 315 136 236 105 260 284 139 285 261 285 268 285 272 279 284 290 290 288 254 277 278 300 288 287 289 290 292
359 355 350 356 381 290 337 343 318 320 258 259 316 325 312 297 286 283 295 297 295 265 109 173 269 273 273 273 269 273 275 274 278 283 282 284 120 289 291 293 296 298 300 303
338 345 349 361 335 324 236 329 284 255 255 310 316 298 292 290 295 286 274 278 272 268 268 264 260 267 262 155 269 205 238 199 112 265 145 273 275 274 278 282 283 285 286 287
326 328 326 328 317 328 292 260 256 252 308 289 298 295 283 269 267 262 261 261 261 258 255 298 321 273 273 251 172 283 261 222 215 271 276 277 279 284 286 287 288 289 290 290
323 326 328 342 342 272 264 265 254 279 290 283 263 257 250 251 250 246 239 234 239 276 278 274 270 270 271 272 269 264 264 265 265 265 264 267 267 269 272 272 273 274 275 276
Wind_Speed
76 75 72 69 65 61 59 56 20 9 10 14 34 38 46 51 53 61 57 55 54 60 61 60 58 58 62 63 63 59 58 57 56 58 56 56 52 48 46 46 43 29 28 34
74 73 68 65 60 59 59 19 7 17 20 16 35 44 52 55 57 63 58 55 55 60 61 61 58 56 59 59 59 55 54 55 55 54 52 52 50 50 42 43 30 29 29 50
72 68 63 60 56 54 53 8 14 17 23 33 44 52 55 57 60 60 59 56 56 59 61 58 59 56 57 58 57 57 56 52 52 50 54 50 49 52 43 34 30 31 45 53
67 63 58 51 52 48 45 1 15 20 28 38 45 53 56 56 57 58 56 53 55 57 56 50 55 56 57 61 57 57 57 55 52 55 53 50 47 49 43 36 32 41 55 58
61 57 54 46 45 42 35 5 14 25 32 39 48 52 54 55 57 55 51 50 53 54 53 50 53 54 57 59 61 62 59 56 55 57 58 51 45 48 40 40 37 52 59 57
56 51 46 41 38 35 28 16 10 19 28 39 48 51 53 54 53 48 48 47 50 51 50 48 51 57 60 61 61 61 62 59 59 58 58 53 43 48 41 45 45 62 61 58
52 48 37 37 34 30 23 14 12 19 29 40 45 47 47 49 51 47 45 44 46 48 50 51 50 51 54 57 56 54 52 56 54 49 47 41 47 51 44 47 51 63 65 63
45 44 32 32 30 25 21 16 13 18 31 36 42 44 47 51 52 50 47 45 45 46 46 44 44 49 49 49 48 48 47 47 46 45 44 42 48 56 47 55 53 67 67 71
41 40 29 30 26 22 19 15 16 19 30 39 40 43 45 48 47 46 43 45 44 44 44 46 45 44 42 41 42 43 45 41 41 40 41 39 50 58 51 57 55 74 70 71
38 32 26 26 21 19 16 14 15 19 29 37 40 40 43 48 47 45 45 43 41 43 45 47 47 46 44 42 41 42 41 41 40 41 39 40 53 58 55 60 62 64 75 73
35 26 24 22 17 15 12 13 17 18 24 34 38 40 42 47 50 24 44 43 42 44 45 46 45 42 42 41 42 22 38 40 42 41 42 48 60 64 57 56 65 63 79 79
31 23 22 18 14 13 12 14 15 11 15 27 31 35 39 42 47 50 48 44 45 44 44 44 45 45 43 42 44 42 42 44 44 45 48 54 59 59 61 59 65 72 76 83
29 23 20 16 11 8 8 9 16 18 19 18 19 24 36 41 42 45 49 48 46 44 44 42 42 41 39 40 42 41 44 46 43 52 52 53 54 57 66 65 65 70 78 77
27 26 23 17 12 7 9 12 13 15 15 15 15 19 15 17 26 36 43 47 51 51 48 29 43 39 40 42 42 44 49 50 51 49 47 55 55 58 61 70 64 67 74 78
24 30 26 20 18 17 15 13 16 17 17 15 14 12 18 18 7 17 27 34 42 48 49 48 46 46 47 47 45 46 43 41 37 43 32 38 29 60 62 65 75 75 75 77
25 33 29 25 23 22 20 18 16 17 15 14 14 15 9 6 7 10 15 25 29 35 37 35 37 41 34 34 41 42 47 43 45 34 35 27 43 58 63 67 69 81 79 78
26 35 34 29 28 25 24 23 23 21 20 18 18 17 15 9 14 10 13 20 26 30 32 33 33 36 36 40 50 53 47 47 47 46 45 47 46 54 52 69 72 75 83 86
31 37 39 36 30 24 24 27 27 26 21 18 16 17 17 13 16 12 14 19 26 29 31 32 30 36 37 51 54 53 49 47 47 45 49 50 53 52 53 63 71 71 74 79
34 39 42 38 33 31 25 23 24 29 24 17 18 16 15 17 14 13 16 22 23 23 26 26 27 37 47 56 52 48 52 48 48 48 51 50 52 51 50 53 52 70 75 75
38 41 41 40 43 29 26 24 23 21 25 22 18 16 14 13 8 11 16 19 21 27 24 21 26 37 44 55 52 38 48 45 46 44 45 47 50 47 49 51 53 50 58 67
42 44 43 45 49 46 30 28 27 20 24 24 21 14 13 8 18 21 23 26 25 24 23 22 26 19 31 20 19 26 36 45 46 48 49 46 45 48 51 51 53 55 59 65
41 44 48 49 45 42 38 29 26 22 24 25 18 10 14 18 17 24 23 23 23 22 20 22 19 19 19 18 20 25 21 24 28 33 37 40 42 44 45 46 50 54 57 60
29 37 38 38 49 41 33 31 33 31 32 22 15 14 16 12 19 22 11 11 6 11 13 6 8 13 7 15 11 18 20 24 26 29 33 34 41 44 41 50 51 54 57 60
34 35 34 35 32 21 30 36 37 32 26 19 14 21 20 16 13 11 12 13 14 10 11 5 13 13 16 19 21 23 25 27 30 32 34 37 12 41 42 44 47 50 53 54
28 30 27 28 39 36 25 41 39 30 22 18 25 18 15 13 16 13 8 10 8 9 11 12 15 17 19 11 24 20 27 23 13 36 16 40 40 42 43 45 47 49 52 53
33 33 34 38 41 46 46 42 35 27 19 24 21 18 17 14 13 10 9 10 11 13 13 13 14 17 17 14 14 13 23 25 24 33 31 34 36 38 41 43 45 47 49 50
30 32 37 35 50 50 43 38 31 26 32 29 24 19 14 9 4 3 5 8 13 4 4 5 8 10 13 16 18 22 25 27 30 33 36 38 40 43 46 48 50 52 53 55
Wind_Direction
309 313 316 317 320 316 316 315 302 254 163 230 211 197 187 196 200 214 215 216 214 218 224 223 227 225 225 230 235 238 237 240 240 242 246 250 256 259 262 265 268 245 233 196
312 313 316 317 319 318 320 330 155 156 173 189 183 185 187 193 197 211 213 214 206 213 217 219 222 222 224 229 234 233 236 239 242 245 249 255 259 263 264 267 243 227 214 185
311 312 316 320 319 321 324 3 149 165 174 176 178 179 188 193 196 202 211 212 204 207 220 216 218 222 222 229 233 235 238 238 244 246 247 250 256 259 263 248 221 208 190 184
309 311 315 318 318 324 327 149 175 176 175 177 178 183 190 192 197 202 210 209 207 211 217 223 218 221 226 229 234 237 240 241 244 249 249 249 253 260 259 227 212 198 183 184
307 310 313 315 316 323 329 203 179 176 180 179 178 187 193 192 198 204 211 211 204 209 214 221 221 224 229 232 235 238 242 245 248 251 252 252 253 251 245 214 206 192 187 197
304 310 313 312 314 319 323 327 234 193 186 183 185 191 197 193 199 208 212 214 212 212 218 221 223 223 227 230 234 237 241 244 247 248 251 251 239 236 226 209 199 188 192 202
303 308 307 311 310 316 314 300 264 213 192 187 191 195 199 195 200 207 214 217 214 216 218 221 225 229 232 232 235 238 240 246 247 242 240 232 223 223 212 203 193 194 198 207
302 305 301 307 305 310 303 287 251 220 199 194 195 199 198 199 201 206 213 218 217 219 221 221 222 233 238 239 238 236 235 238 238 238 236 226 225 217 208 204 193 198 199 202
300 304 296 302 302 303 294 277 241 214 202 199 200 203 202 204 210 210 214 217 217 217 219 223 224 225 228 232 235 231 230 232 234 233 234 226 219 214 209 201 206 196 204 206
295 299 287 295 297 298 289 266 247 219 203 201 203 208 207 206 211 212 215 217 220 224 225 227 229 230 232 230 231 233 230 226 228 229 228 221 218 216 212 202 204 201 206 210
290 286 276 284 295 287 273 248 233 226 204 202 205 208 212 212 213 213 218 220 221 223 225 227 229 228 228 229 236 230 231 223 227 225 223 216 220 215 214 214 208 209 204 211
288 265 263 276 282 271 246 234 224 201 190 202 207 210 214 218 219 220 223 223 224 224 225 227 230 230 230 234 234 230 232 232 232 222 221 219 222 224 216 216 213 209 209 213
285 245 247 257 261 253 223 186 158 158 160 176 185 205 218 222 224 225 225 227 228 228 228 230 232 233 235 236 239 241 241 243 242 227 223 223 224 224 217 221 220 215 215 218
280 230 235 240 225 199 185 163 148 148 163 177 190 220 229 235 230 230 232 233 234 235 235 233 234 234 234 233 236 236 239 238 237 239 234 229 225 225 224 221 226 224 220 222
268 222 227 221 213 206 199 180 160 165 182 184 206 215 238 237 260 239 227 224 229 235 237 238 241 242 242 243 244 243 230 228 222 231 228 233 227 226 226 225 222 226 226 223
235 216 219 216 209 210 208 191 197 205 198 205 215 226 254 300 296 254 237 232 223 223 227 229 229 235 219 205 191 213 226 219 225 203 209 197 224 223 229 225 225 224 229 232
228 215 213 214 214 204 200 195 199 212 213 212 224 233 243 279 300 265 245 228 225 224 222 221 210 210 206 205 196 204 222 212 219 222 218 221 217 225 224 228 228 227 227 230
224 216 211 212 215 204 196 193 196 209 218 218 230 244 243 276 300 261 243 231 216 214 220 221 210 208 197 196 200 207 213 221 213 205 227 223 228 228 227 230 233 238 237 234
223 218 214 210 212 211 196 188 186 203 218 219 234 246 282 302 271 234 224 215 205 198 196 205 203 195 190 200 212 213 213 224 211 227 224 231 235 232 235 236 232 240 239 242
222 217 215 209 215 214 193 191 190 194 212 221 228 240 267 288 231 208 196 185 187 183 191 186 183 192 198 205 213 220 218 226 225 237 242 244 241 247 246 244 240 245 242 242
229 217 212 212 216 216 204 192 202 194 205 221 228 251 302 165 153 143 138 156 160 165 169 161 184 191 208 210 202 208 229 225 229 235 238 244 248 250 249 245 246 246 244 242
229 225 219 219 221 219 209 202 201 193 204 219 222 265 157 164 172 151 147 150 152 168 162 176 183 200 201 216 223 237 235 236 237 238 242 248 252 253 254 251 249 249 251 253
178 191 204 207 219 218 209 204 207 196 204 208 219 187 179 171 169 153 211 156 220 164 180 199 220 214 260 232 246 243 246 251 255 251 250 245 249 251 255 254 256 255 255 255
166 174 179 195 198 179 189 185 203 187 191 196 190 170 164 164 167 166 142 148 159 186 230 231 224 227 233 239 252 255 258 259 259 259 259 260 287 262 262 261 261 261 261 262
168 172 174 163 157 165 175 171 175 181 179 175 161 165 169 164 147 142 154 155 172 207 218 235 244 244 252 269 262 269 271 264 287 270 261 269 268 267 266 266 265 265 265 265
133 138 147 157 165 164 161 174 175 174 161 146 153 152 141 149 156 174 193 211 228 243 256 279 274 254 259 259 264 264 262 259 272 267 268 268 268 270 269 269 268 268 267 267
155 161 161 162 159 159 164 161 169 163 138 141 144 150 166 171 187 238 254 259 266 147 148 184 238 260 279 284 281 279 283 284 283 281 278 278 277 277 276 275 274 273 273 273